Regional Weather Roundup
Issued by NWS Bismarck, ND

Home | Current Version | Previous Version | Text Only | Print | Product List | Glossary On
Versions: 1 2 3 4 5 6 7 8 9 10 11 12 13 14 15 16 17 18 19 20 21 22 23 24 25 26 27 28 29 30 31 32 33 34 35 36 37 38 39 40 41 42 43 44 45 46 47 48 49 50
000
ASUS43 KBIS 010710
RWRBIS

NWR BROADCAST TEXT
NATIONAL WEATHER SERVICE BISMARCK ND
200 AM CDT SUN MAY 01 2016

NOTE: "FAIR" INDICATES FEW OR NO CLOUDS BELOW 12,000 FEET WITH NO
SIGNIFICANT WEATHER AND/OR OBSTRUCTIONS TO VISIBILITY.


CITY           SKY/WX    TMP DP  RH WIND       PRES   REMARKS
WILLISTON      CLEAR     40  29  64 N3        30.33R
MINOT          CLOUDY    40  27  59 N8        30.31S
MINOT AFB      CLOUDY    35  28  75 N7        30.31R
BISMARCK       CLEAR     37  31  78 NE3       30.29R
DICKINSON      CLEAR     36  26  67 NW7       30.28R
GARRISON         N/A     41  30  65 NE7       30.30R
HETTINGER ARPT CLEAR     28  24  85 W6        30.30R
JAMESTOWN      CLEAR     37  27  67 N9        30.24S
BEACH          FAIR      32  30  93 SW3       30.34S
CARRINGTON     FAIR      39  28  65 N5        30.30S
HAZEN          PTSUNNY   28  27  93 S3        30.32S
LINTON         FAIR      34  28  80 CALM      30.28R
MANDAN         FAIR      37  28  70 N5        30.29S
OAKES            N/A    N/A N/A N/A MISG        N/A
RUGBY          FAIR      37  28  70 E8        30.31R
STANLEY        FAIR      39  28  65 N5        30.35S
WATFORD CITY   FAIR      32  30  93 SW3       30.33R
$$

CITY           SKY/WX    TMP DP  RH WIND       PRES   REMARKS
GRAND FORKS    CLEAR     41  27  57 E7        30.26S
GRAND FORKS AF CLEAR     34  25  69 N6        30.26S
DEVILS LAKE    CLEAR     36  30  79 N9        30.30R
FARGO          CLEAR     41  27  57 NE6       30.23R
CANDO          FAIR      34  27  75 N8        30.33S
CAVALIER       FAIR      37  30  75 NW3       30.30S
GRAFTON        FAIR      39  28  65 N7        30.30S
GWINNER        FAIR      39  32  75 N6        30.23R
LANGDON        FAIR      32  25  74 N3        30.31S
ROLLA          FAIR      36  25  64 NW9       30.33S
WALHALLA       FAIR      36  36 100 CALM      30.31S
$$

CITY           SKY/WX    TMP DP  RH WIND       PRES   REMARKS
ABERDEEN       CLEAR     39  31  72 NE6       30.20R
MOBRIDGE       CLEAR     45  30  55 NE13      30.20S
BUFFALO          N/A     41  26  55 N6        30.22S
RAPID CITY     CLOUDY    39  32  76 N9        30.24S
GLASGOW        CLOUDY    41  29  62 E7        30.32S
SIDNEY         CLEAR     39  30  70 CALM      30.32S
WOLF POINT     CLEAR     40  31  70 CALM      30.33S
GLENDIVE       CLEAR     39  30  70 N7        30.34S
MILES CITY     CLEAR     43  33  68 N5        30.31R
BAKER          CLEAR     34  27  75 SE3       30.32R
$$

CITY           SKY/WX    TMP DP  RH WIND       PRES   REMARKS
BILLINGS       CLOUDY    42  32  67 N3        30.32R
GREAT FALLS    CLEAR     40  33  76 SE8       30.33S
REGINA         CLEAR     37  23  56 SE9       30.33S
$$





USA.gov is the U.S. government's official web portal to all federal, state and local government web resources and services.